owner,sensor,date,latitude,longitude,air_temperature,qcFlag 
COMPS,ioos:station:USF.COMPS:C12:1,2016-12-01T00:05:00Z,27.4980,-83.7220,24.18,1111122 
COMPS,ioos:station:USF.COMPS:C12:1,2016-12-01T00:35:00Z,27.4980,-83.7220,24.22,1111122 
COMPS,ioos:station:USF.COMPS:C12:1,2016-12-01T01:05:00Z,27.4980,-83.7220,24.19,1111122 
COMPS,ioos:station:USF.COMPS:C12:1,2016-12-01T01:35:00Z,27.4980,-83.7220,24.21,1111122 
COMPS,ioos:station:USF.COMPS:C12:1,2016-12-01T02:05:00Z,27.4980,-83.7220,24.22,1111122 
COMPS,ioos:station:USF.COMPS:C12:1,2016-12-01T02:35:00Z,27.4980,-83.7220,24.2,1111122 
COMPS,ioos:station:USF.COMPS:C12:1,2016-12-01T03:05:00Z,27.4980,-83.7220,24.22,1111122 
COMPS,ioos:station:USF.COMPS:C12:1,2016-12-01T03:35:00Z,27.4980,-83.7220,24.25,1111122 
COMPS,ioos:station:USF.COMPS:C12:1,2016-12-01T04:05:00Z,27.4980,-83.7220,24.22,1111122 
COMPS,ioos:station:USF.COMPS:C12:1,2016-12-01T04:35:00Z,27.4980,-83.7220,24.25,1111122 
COMPS,ioos:station:USF.COMPS:C12:1,2016-12-01T05:05:00Z,27.4980,-83.7220,24.19,1111122 
COMPS,ioos:station:USF.COMPS:C12:1,2016-12-01T05:35:00Z,27.4980,-83.7220,24.2,1111122 
COMPS,ioos:station:USF.COMPS:C12:1,2016-12-01T06:05:00Z,27.4980,-83.7220,24.22,1111122 
COMPS,ioos:station:USF.COMPS:C12:1,2016-12-01T06:35:00Z,27.4980,-83.7220,24.24,1111122 
COMPS,ioos:station:USF.COMPS:C12:1,2016-12-01T07:05:00Z,27.4980,-83.7220,24.25,1111122 
COMPS,ioos:station:USF.COMPS:C12:1,2016-12-01T07:35:00Z,27.4980,-83.7220,24.3,1111122 
COMPS,ioos:station:USF.COMPS:C12:1,2016-12-01T08:05:00Z,27.4980,-83.7220,24.34,1111122 
COMPS,ioos:station:USF.COMPS:C12:1,2016-12-01T08:35:00Z,27.4980,-83.7220,24.35,1111122 
COMPS,ioos:station:USF.COMPS:C12:1,2016-12-01T09:05:00Z,27.4980,-83.7220,24.33,1111122 
COMPS,ioos:station:USF.COMPS:C12:1,2016-12-01T09:35:00Z,27.4980,-83.7220,24.29,1111122 
COMPS,ioos:station:USF.COMPS:C12:1,2016-12-01T10:05:00Z,27.4980,-83.7220,24.24,1111122 
COMPS,ioos:station:USF.COMPS:C12:1,2016-12-01T10:35:00Z,27.4980,-83.7220,24.24,1111122 
COMPS,ioos:station:USF.COMPS:C12:1,2016-12-01T11:05:00Z,27.4980,-83.7220,24.3,1111122 
COMPS,ioos:station:USF.COMPS:C12:1,2016-12-01T11:35:00Z,27.4980,-83.7220,24.26,1111122 
COMPS,ioos:station:USF.COMPS:C12:1,2016-12-01T12:05:00Z,27.4980,-83.7220,24.28,1111122 
COMPS,ioos:station:USF.COMPS:C12:1,2016-12-01T12:35:00Z,27.4980,-83.7220,24.31,1111122 
COMPS,ioos:station:USF.COMPS:C12:1,2016-12-01T13:05:00Z,27.4980,-83.7220,24.38,1111122 
COMPS,ioos:station:USF.COMPS:C12:1,2016-12-01T13:35:00Z,27.4980,-83.7220,24.44,1111122 
COMPS,ioos:station:USF.COMPS:C12:1,2016-12-01T14:05:00Z,27.4980,-83.7220,24.52,1111122 
COMPS,ioos:station:USF.COMPS:C12:1,2016-12-01T14:35:00Z,27.4980,-83.7220,24.82,1111122 
COMPS,ioos:station:USF.COMPS:C12:1,2016-12-01T15:05:00Z,27.4980,-83.7220,24.75,1111122 
COMPS,ioos:station:USF.COMPS:C12:1,2016-12-01T15:35:00Z,27.4980,-83.7220,21.83,1111122 
COMPS,ioos:station:USF.COMPS:C12:1,2016-12-01T16:05:00Z,27.4980,-83.7220,21.72,1111122 
COMPS,ioos:station:USF.COMPS:C12:1,2016-12-01T16:35:00Z,27.4980,-83.7220,21.62,1111122 
COMPS,ioos:station:USF.COMPS:C12:1,2016-12-01T17:05:00Z,27.4980,-83.7220,21.55,1111122 
COMPS,ioos:station:USF.COMPS:C12:1,2016-12-01T17:35:00Z,27.4980,-83.7220,21.38,1111122 
COMPS,ioos:station:USF.COMPS:C12:1,2016-12-01T18:05:00Z,27.4980,-83.7220,21.47,1111122 
COMPS,ioos:station:USF.COMPS:C12:1,2016-12-01T18:35:00Z,27.4980,-83.7220,21.49,1111122 
COMPS,ioos:station:USF.COMPS:C12:1,2016-12-01T19:05:00Z,27.4980,-83.7220,21.46,1111122 
COMPS,ioos:station:USF.COMPS:C12:1,2016-12-01T19:35:00Z,27.4980,-83.7220,21.29,1111122 
COMPS,ioos:station:USF.COMPS:C12:1,2016-12-01T20:05:00Z,27.4980,-83.7220,21.32,1111122 
COMPS,ioos:station:USF.COMPS:C12:1,2016-12-01T20:35:00Z,27.4980,-83.7220,20.94,1111122 
COMPS,ioos:station:USF.COMPS:C12:1,2016-12-01T21:05:00Z,27.4980,-83.7220,21.08,1111122 
COMPS,ioos:station:USF.COMPS:C12:1,2016-12-01T21:35:00Z,27.4980,-83.7220,21.21,1111122 
COMPS,ioos:station:USF.COMPS:C12:1,2016-12-01T22:05:00Z,27.4980,-83.7220,21.37,1111122 
COMPS,ioos:station:USF.COMPS:C12:1,2016-12-01T22:35:00Z,27.4980,-83.7220,21.48,1111122 
COMPS,ioos:station:USF.COMPS:C12:1,2016-12-01T23:05:00Z,27.4980,-83.7220,21.49,1111122 
COMPS,ioos:station:USF.COMPS:C12:1,2016-12-01T23:35:00Z,27.4980,-83.7220,21.78,1111122 
COMPS,ioos:station:USF.COMPS:C12:1,2016-12-02T00:05:00Z,27.4980,-83.7220,21.81,1111122 
COMPS,ioos:station:USF.COMPS:C12:1,2016-12-02T00:35:00Z,27.4980,-83.7220,22.0,1111122 
COMPS,ioos:station:USF.COMPS:C12:1,2016-12-02T01:05:00Z,27.4980,-83.7220,21.76,1111122 
COMPS,ioos:station:USF.COMPS:C12:1,2016-12-02T01:35:00Z,27.4980,-83.7220,21.39,1111122 
COMPS,ioos:station:USF.COMPS:C12:1,2016-12-02T02:05:00Z,27.4980,-83.7220,21.32,1111122 
COMPS,ioos:station:USF.COMPS:C12:1,2016-12-02T02:35:00Z,27.4980,-83.7220,21.46,1111122 
COMPS,ioos:station:USF.COMPS:C12:1,2016-12-02T03:05:00Z,27.4980,-83.7220,21.42,1111122 
COMPS,ioos:station:USF.COMPS:C12:1,2016-12-02T03:35:00Z,27.4980,-83.7220,21.45,1111122 
COMPS,ioos:station:USF.COMPS:C12:1,2016-12-02T04:05:00Z,27.4980,-83.7220,21.75,1111122 
COMPS,ioos:station:USF.COMPS:C12:1,2016-12-02T04:35:00Z,27.4980,-83.7220,21.76,1111122 
COMPS,ioos:station:USF.COMPS:C12:1,2016-12-02T05:05:00Z,27.4980,-83.7220,21.83,1111122 
COMPS,ioos:station:USF.COMPS:C12:1,2016-12-02T05:35:00Z,27.4980,-83.7220,21.69,1111122 
COMPS,ioos:station:USF.COMPS:C12:1,2016-12-02T06:05:00Z,27.4980,-83.7220,21.57,1111122 
COMPS,ioos:station:USF.COMPS:C12:1,2016-12-02T06:35:00Z,27.4980,-83.7220,21.56,1111122 
COMPS,ioos:station:USF.COMPS:C12:1,2016-12-02T07:05:00Z,27.4980,-83.7220,21.45,1111122 
COMPS,ioos:station:USF.COMPS:C12:1,2016-12-02T07:35:00Z,27.4980,-83.7220,21.31,1111122 
COMPS,ioos:station:USF.COMPS:C12:1,2016-12-02T08:05:00Z,27.4980,-83.7220,21.09,1111122 
COMPS,ioos:station:USF.COMPS:C12:1,2016-12-02T08:35:00Z,27.4980,-83.7220,21.08,1111122 
COMPS,ioos:station:USF.COMPS:C12:1,2016-12-02T09:05:00Z,27.4980,-83.7220,20.85,1111122 
COMPS,ioos:station:USF.COMPS:C12:1,2016-12-02T09:35:00Z,27.4980,-83.7220,20.82,1111122 
COMPS,ioos:station:USF.COMPS:C12:1,2016-12-02T10:05:00Z,27.4980,-83.7220,21.02,1111122 
COMPS,ioos:station:USF.COMPS:C12:1,2016-12-02T10:35:00Z,27.4980,-83.7220,20.99,1111122 
COMPS,ioos:station:USF.COMPS:C12:1,2016-12-02T11:05:00Z,27.4980,-83.7220,20.76,1111122 
COMPS,ioos:station:USF.COMPS:C12:1,2016-12-02T11:35:00Z,27.4980,-83.7220,20.71,1111122 
COMPS,ioos:station:USF.COMPS:C12:1,2016-12-02T12:05:00Z,27.4980,-83.7220,20.31,1111122 
COMPS,ioos:station:USF.COMPS:C12:1,2016-12-02T12:35:00Z,27.4980,-83.7220,20.22,1111122 
COMPS,ioos:station:USF.COMPS:C12:1,2016-12-02T13:05:00Z,27.4980,-83.7220,19.9,1111122 
COMPS,ioos:station:USF.COMPS:C12:1,2016-12-02T13:35:00Z,27.4980,-83.7220,19.78,1111122 
COMPS,ioos:station:USF.COMPS:C12:1,2016-12-02T14:05:00Z,27.4980,-83.7220,19.63,1111122 
COMPS,ioos:station:USF.COMPS:C12:1,2016-12-02T14:35:00Z,27.4980,-83.7220,19.39,1111122 
COMPS,ioos:station:USF.COMPS:C12:1,2016-12-02T15:05:00Z,27.4980,-83.7220,19.16,1111122 
COMPS,ioos:station:USF.COMPS:C12:1,2016-12-02T15:35:00Z,27.4980,-83.7220,18.93,1111122 
COMPS,ioos:station:USF.COMPS:C12:1,2016-12-02T16:05:00Z,27.4980,-83.7220,18.78,1111122 
COMPS,ioos:station:USF.COMPS:C12:1,2016-12-02T16:35:00Z,27.4980,-83.7220,18.77,1111122 
COMPS,ioos:station:USF.COMPS:C12:1,2016-12-02T17:05:00Z,27.4980,-83.7220,18.75,1111122 
COMPS,ioos:station:USF.COMPS:C12:1,2016-12-02T17:35:00Z,27.4980,-83.7220,18.79,1111122 
COMPS,ioos:station:USF.COMPS:C12:1,2016-12-02T18:05:00Z,27.4980,-83.7220,18.98,1111122 
COMPS,ioos:station:USF.COMPS:C12:1,2016-12-02T18:35:00Z,27.4980,-83.7220,19.16,1111122 
COMPS,ioos:station:USF.COMPS:C12:1,2016-12-02T19:05:00Z,27.4980,-83.7220,19.33,1111122 
COMPS,ioos:station:USF.COMPS:C12:1,2016-12-02T19:35:00Z,27.4980,-83.7220,19.57,1111122 
COMPS,ioos:station:USF.COMPS:C12:1,2016-12-02T20:05:00Z,27.4980,-83.7220,19.72,1111122 
COMPS,ioos:station:USF.COMPS:C12:1,2016-12-02T20:35:00Z,27.4980,-83.7220,20.1,1111122 
COMPS,ioos:station:USF.COMPS:C12:1,2016-12-02T21:05:00Z,27.4980,-83.7220,20.32,1111122 
COMPS,ioos:station:USF.COMPS:C12:1,2016-12-02T21:35:00Z,27.4980,-83.7220,20.68,1111122 
COMPS,ioos:station:USF.COMPS:C12:1,2016-12-02T22:05:00Z,27.4980,-83.7220,20.83,1111122 
COMPS,ioos:station:USF.COMPS:C12:1,2016-12-02T22:35:00Z,27.4980,-83.7220,20.86,1111122 
COMPS,ioos:station:USF.COMPS:C12:1,2016-12-02T23:05:00Z,27.4980,-83.7220,20.96,1111122 
COMPS,ioos:station:USF.COMPS:C12:1,2016-12-02T23:35:00Z,27.4980,-83.7220,21.07,1111122 
COMPS,ioos:station:USF.COMPS:C12:1,2016-12-03T00:05:00Z,27.4980,-83.7220,21.2,1111122 
COMPS,ioos:station:USF.COMPS:C12:1,2016-12-03T00:35:00Z,27.4980,-83.7220,21.13,1111122 
COMPS,ioos:station:USF.COMPS:C12:1,2016-12-03T01:05:00Z,27.4980,-83.7220,21.22,1111122 
COMPS,ioos:station:USF.COMPS:C12:1,2016-12-03T01:35:00Z,27.4980,-83.7220,21.32,1111122 
COMPS,ioos:station:USF.COMPS:C12:1,2016-12-03T02:05:00Z,27.4980,-83.7220,21.63,1111122 
COMPS,ioos:station:USF.COMPS:C12:1,2016-12-03T02:35:00Z,27.4980,-83.7220,21.82,1111122 
COMPS,ioos:station:USF.COMPS:C12:1,2016-12-03T03:05:00Z,27.4980,-83.7220,21.73,1111122 
COMPS,ioos:station:USF.COMPS:C12:1,2016-12-03T03:35:00Z,27.4980,-83.7220,21.77,1111122 
COMPS,ioos:station:USF.COMPS:C12:1,2016-12-03T04:05:00Z,27.4980,-83.7220,21.65,1111122 
COMPS,ioos:station:USF.COMPS:C12:1,2016-12-03T04:35:00Z,27.4980,-83.7220,21.48,1111122 
COMPS,ioos:station:USF.COMPS:C12:1,2016-12-03T05:05:00Z,27.4980,-83.7220,21.36,1111122 
COMPS,ioos:station:USF.COMPS:C12:1,2016-12-03T05:35:00Z,27.4980,-83.7220,21.03,1111122 
COMPS,ioos:station:USF.COMPS:C12:1,2016-12-03T06:05:00Z,27.4980,-83.7220,20.66,1111122 
COMPS,ioos:station:USF.COMPS:C12:1,2016-12-03T06:35:00Z,27.4980,-83.7220,20.92,1111122 
COMPS,ioos:station:USF.COMPS:C12:1,2016-12-03T07:05:00Z,27.4980,-83.7220,20.61,1111122 
COMPS,ioos:station:USF.COMPS:C12:1,2016-12-03T07:35:00Z,27.4980,-83.7220,20.58,1111122 
COMPS,ioos:station:USF.COMPS:C12:1,2016-12-03T08:05:00Z,27.4980,-83.7220,20.32,1111122 
COMPS,ioos:station:USF.COMPS:C12:1,2016-12-03T08:35:00Z,27.4980,-83.7220,20.41,1111122 
COMPS,ioos:station:USF.COMPS:C12:1,2016-12-03T09:05:00Z,27.4980,-83.7220,20.15,1111122 
COMPS,ioos:station:USF.COMPS:C12:1,2016-12-03T09:35:00Z,27.4980,-83.7220,20.12,1111122 
COMPS,ioos:station:USF.COMPS:C12:1,2016-12-03T10:05:00Z,27.4980,-83.7220,19.38,1111122 
COMPS,ioos:station:USF.COMPS:C12:1,2016-12-03T10:35:00Z,27.4980,-83.7220,19.93,1111122 
COMPS,ioos:station:USF.COMPS:C12:1,2016-12-03T11:05:00Z,27.4980,-83.7220,19.81,1111122 
COMPS,ioos:station:USF.COMPS:C12:1,2016-12-03T11:35:00Z,27.4980,-83.7220,19.79,1111122 
COMPS,ioos:station:USF.COMPS:C12:1,2016-12-03T12:05:00Z,27.4980,-83.7220,19.54,1111122 
COMPS,ioos:station:USF.COMPS:C12:1,2016-12-03T12:35:00Z,27.4980,-83.7220,19.39,1111122 
COMPS,ioos:station:USF.COMPS:C12:1,2016-12-03T13:05:00Z,27.4980,-83.7220,19.39,1111122 
COMPS,ioos:station:USF.COMPS:C12:1,2016-12-03T13:35:00Z,27.4980,-83.7220,19.44,1111122 
COMPS,ioos:station:USF.COMPS:C12:1,2016-12-03T14:05:00Z,27.4980,-83.7220,19.43,1111122 
COMPS,ioos:station:USF.COMPS:C12:1,2016-12-03T14:35:00Z,27.4980,-83.7220,19.41,1111122 
COMPS,ioos:station:USF.COMPS:C12:1,2016-12-03T15:05:00Z,27.4980,-83.7220,19.51,1111122 
COMPS,ioos:station:USF.COMPS:C12:1,2016-12-03T15:35:00Z,27.4980,-83.7220,19.62,1111122 
COMPS,ioos:station:USF.COMPS:C12:1,2016-12-03T16:05:00Z,27.4980,-83.7220,19.71,1111122 
COMPS,ioos:station:USF.COMPS:C12:1,2016-12-03T16:35:00Z,27.4980,-83.7220,19.93,1111122 
COMPS,ioos:station:USF.COMPS:C12:1,2016-12-03T17:05:00Z,27.4980,-83.7220,20.21,1111122 
COMPS,ioos:station:USF.COMPS:C12:1,2016-12-03T17:35:00Z,27.4980,-83.7220,20.48,1111122 
COMPS,ioos:station:USF.COMPS:C12:1,2016-12-03T18:05:00Z,27.4980,-83.7220,20.72,1111122 
COMPS,ioos:station:USF.COMPS:C12:1,2016-12-03T18:35:00Z,27.4980,-83.7220,20.87,1111122 
COMPS,ioos:station:USF.COMPS:C12:1,2016-12-03T19:05:00Z,27.4980,-83.7220,21.25,1111122 
COMPS,ioos:station:USF.COMPS:C12:1,2016-12-03T19:35:00Z,27.4980,-83.7220,21.45,1111122 
COMPS,ioos:station:USF.COMPS:C12:1,2016-12-03T20:05:00Z,27.4980,-83.7220,21.71,1111122 
COMPS,ioos:station:USF.COMPS:C12:1,2016-12-03T20:35:00Z,27.4980,-83.7220,22.16,1111122 
COMPS,ioos:station:USF.COMPS:C12:1,2016-12-03T21:05:00Z,27.4980,-83.7220,22.29,1111122 
COMPS,ioos:station:USF.COMPS:C12:1,2016-12-03T21:35:00Z,27.4980,-83.7220,22.31,1111122 
COMPS,ioos:station:USF.COMPS:C12:1,2016-12-03T22:05:00Z,27.4980,-83.7220,22.72,1111122 
COMPS,ioos:station:USF.COMPS:C12:1,2016-12-03T22:35:00Z,27.4980,-83.7220,22.86,1111122 
COMPS,ioos:station:USF.COMPS:C12:1,2016-12-03T23:05:00Z,27.4980,-83.7220,23.0,1111122 
COMPS,ioos:station:USF.COMPS:C12:1,2016-12-03T23:35:00Z,27.4980,-83.7220,23.21,1111122 
COMPS,ioos:station:USF.COMPS:C12:1,2016-12-04T00:05:00Z,27.4980,-83.7220,23.27,1111122 
COMPS,ioos:station:USF.COMPS:C12:1,2016-12-04T00:35:00Z,27.4980,-83.7220,23.36,1111122 
COMPS,ioos:station:USF.COMPS:C12:1,2016-12-04T01:05:00Z,27.4980,-83.7220,23.19,1111122 
COMPS,ioos:station:USF.COMPS:C12:1,2016-12-04T01:35:00Z,27.4980,-83.7220,23.06,1111122 
COMPS,ioos:station:USF.COMPS:C12:1,2016-12-04T02:05:00Z,27.4980,-83.7220,23.32,1111122 
COMPS,ioos:station:USF.COMPS:C12:1,2016-12-04T02:35:00Z,27.4980,-83.7220,23.51,1111122 
COMPS,ioos:station:USF.COMPS:C12:1,2016-12-04T03:05:00Z,27.4980,-83.7220,23.44,1111122 
COMPS,ioos:station:USF.COMPS:C12:1,2016-12-04T03:35:00Z,27.4980,-83.7220,23.16,1111122 
COMPS,ioos:station:USF.COMPS:C12:1,2016-12-04T04:05:00Z,27.4980,-83.7220,22.98,1111122 
COMPS,ioos:station:USF.COMPS:C12:1,2016-12-04T04:35:00Z,27.4980,-83.7220,22.79,1111122 
COMPS,ioos:station:USF.COMPS:C12:1,2016-12-04T05:05:00Z,27.4980,-83.7220,22.59,1111122 
COMPS,ioos:station:USF.COMPS:C12:1,2016-12-04T05:35:00Z,27.4980,-83.7220,22.49,1111122 
COMPS,ioos:station:USF.COMPS:C12:1,2016-12-04T06:05:00Z,27.4980,-83.7220,22.39,1111122 
COMPS,ioos:station:USF.COMPS:C12:1,2016-12-04T06:35:00Z,27.4980,-83.7220,22.46,1111122 
COMPS,ioos:station:USF.COMPS:C12:1,2016-12-04T07:05:00Z,27.4980,-83.7220,22.21,1111122 
COMPS,ioos:station:USF.COMPS:C12:1,2016-12-04T07:35:00Z,27.4980,-83.7220,22.61,1111122 
COMPS,ioos:station:USF.COMPS:C12:1,2016-12-04T08:05:00Z,27.4980,-83.7220,22.62,1111122 
COMPS,ioos:station:USF.COMPS:C12:1,2016-12-04T08:35:00Z,27.4980,-83.7220,22.54,1111122 
COMPS,ioos:station:USF.COMPS:C12:1,2016-12-04T09:05:00Z,27.4980,-83.7220,22.48,1111122 
COMPS,ioos:station:USF.COMPS:C12:1,2016-12-04T09:35:00Z,27.4980,-83.7220,22.37,1111122 
COMPS,ioos:station:USF.COMPS:C12:1,2016-12-04T10:05:00Z,27.4980,-83.7220,22.31,1111122 
COMPS,ioos:station:USF.COMPS:C12:1,2016-12-04T10:35:00Z,27.4980,-83.7220,22.27,1111122 
COMPS,ioos:station:USF.COMPS:C12:1,2016-12-04T11:05:00Z,27.4980,-83.7220,22.38,1111122 
COMPS,ioos:station:USF.COMPS:C12:1,2016-12-04T11:35:00Z,27.4980,-83.7220,22.41,1111122 
COMPS,ioos:station:USF.COMPS:C12:1,2016-12-04T12:05:00Z,27.4980,-83.7220,22.53,1111122 
COMPS,ioos:station:USF.COMPS:C12:1,2016-12-04T12:35:00Z,27.4980,-83.7220,22.55,1111122 
COMPS,ioos:station:USF.COMPS:C12:1,2016-12-04T13:05:00Z,27.4980,-83.7220,22.7,1111122 
COMPS,ioos:station:USF.COMPS:C12:1,2016-12-04T13:35:00Z,27.4980,-83.7220,22.9,1111122 
COMPS,ioos:station:USF.COMPS:C12:1,2016-12-04T14:05:00Z,27.4980,-83.7220,22.87,1111122 
COMPS,ioos:station:USF.COMPS:C12:1,2016-12-04T14:35:00Z,27.4980,-83.7220,22.87,1111122 
COMPS,ioos:station:USF.COMPS:C12:1,2016-12-04T15:05:00Z,27.4980,-83.7220,22.99,1111122 
COMPS,ioos:station:USF.COMPS:C12:1,2016-12-04T15:35:00Z,27.4980,-83.7220,23.07,1111122 
COMPS,ioos:station:USF.COMPS:C12:1,2016-12-04T16:05:00Z,27.4980,-83.7220,23.09,1111122 
COMPS,ioos:station:USF.COMPS:C12:1,2016-12-04T16:35:00Z,27.4980,-83.7220,23.25,1111122 
COMPS,ioos:station:USF.COMPS:C12:1,2016-12-04T17:05:00Z,27.4980,-83.7220,23.31,1111122 
COMPS,ioos:station:USF.COMPS:C12:1,2016-12-04T17:35:00Z,27.4980,-83.7220,23.41,1111122 
COMPS,ioos:station:USF.COMPS:C12:1,2016-12-04T18:05:00Z,27.4980,-83.7220,23.45,1111122 
COMPS,ioos:station:USF.COMPS:C12:1,2016-12-04T18:35:00Z,27.4980,-83.7220,23.47,1111122 
COMPS,ioos:station:USF.COMPS:C12:1,2016-12-04T19:05:00Z,27.4980,-83.7220,23.48,1111122 
COMPS,ioos:station:USF.COMPS:C12:1,2016-12-04T19:35:00Z,27.4980,-83.7220,23.66,1111122 
COMPS,ioos:station:USF.COMPS:C12:1,2016-12-04T20:05:00Z,27.4980,-83.7220,23.75,1111122 
COMPS,ioos:station:USF.COMPS:C12:1,2016-12-04T20:35:00Z,27.4980,-83.7220,23.82,1111122 
COMPS,ioos:station:USF.COMPS:C12:1,2016-12-04T21:05:00Z,27.4980,-83.7220,23.95,1111122 
COMPS,ioos:station:USF.COMPS:C12:1,2016-12-04T21:35:00Z,27.4980,-83.7220,24.03,1111122 
COMPS,ioos:station:USF.COMPS:C12:1,2016-12-04T22:05:00Z,27.4980,-83.7220,24.09,1111122 
COMPS,ioos:station:USF.COMPS:C12:1,2016-12-04T22:35:00Z,27.4980,-83.7220,24.11,1111122 
COMPS,ioos:station:USF.COMPS:C12:1,2016-12-04T23:05:00Z,27.4980,-83.7220,24.29,1111122 
COMPS,ioos:station:USF.COMPS:C12:1,2016-12-04T23:35:00Z,27.4980,-83.7220,24.32,1111122 
COMPS,ioos:station:USF.COMPS:C12:1,2016-12-05T00:05:00Z,27.4980,-83.7220,24.43,1111122 
COMPS,ioos:station:USF.COMPS:C12:1,2016-12-05T00:35:00Z,27.4980,-83.7220,24.48,1111122 
COMPS,ioos:station:USF.COMPS:C12:1,2016-12-05T01:05:00Z,27.4980,-83.7220,24.47,1111122 
COMPS,ioos:station:USF.COMPS:C12:1,2016-12-05T01:35:00Z,27.4980,-83.7220,24.48,1111122 
COMPS,ioos:station:USF.COMPS:C12:1,2016-12-05T02:05:00Z,27.4980,-83.7220,24.6,1111122 
COMPS,ioos:station:USF.COMPS:C12:1,2016-12-05T02:35:00Z,27.4980,-83.7220,24.59,1111122 
COMPS,ioos:station:USF.COMPS:C12:1,2016-12-05T03:05:00Z,27.4980,-83.7220,24.56,1111122 
COMPS,ioos:station:USF.COMPS:C12:1,2016-12-05T03:35:00Z,27.4980,-83.7220,24.5,1111122 
COMPS,ioos:station:USF.COMPS:C12:1,2016-12-05T04:05:00Z,27.4980,-83.7220,24.53,1111122 
COMPS,ioos:station:USF.COMPS:C12:1,2016-12-05T04:35:00Z,27.4980,-83.7220,24.51,1111122 
COMPS,ioos:station:USF.COMPS:C12:1,2016-12-05T05:05:00Z,27.4980,-83.7220,24.54,1111122 
COMPS,ioos:station:USF.COMPS:C12:1,2016-12-05T05:35:00Z,27.4980,-83.7220,24.5,1111122 
COMPS,ioos:station:USF.COMPS:C12:1,2016-12-05T06:05:00Z,27.4980,-83.7220,24.43,1111122 
COMPS,ioos:station:USF.COMPS:C12:1,2016-12-05T06:35:00Z,27.4980,-83.7220,24.4,1111122 
COMPS,ioos:station:USF.COMPS:C12:1,2016-12-05T07:05:00Z,27.4980,-83.7220,24.37,1111122 
COMPS,ioos:station:USF.COMPS:C12:1,2016-12-05T07:35:00Z,27.4980,-83.7220,24.42,1111122 
COMPS,ioos:station:USF.COMPS:C12:1,2016-12-05T08:05:00Z,27.4980,-83.7220,24.37,1111122 
COMPS,ioos:station:USF.COMPS:C12:1,2016-12-05T08:35:00Z,27.4980,-83.7220,24.39,1111122 
COMPS,ioos:station:USF.COMPS:C12:1,2016-12-05T09:05:00Z,27.4980,-83.7220,24.3,1111122 
COMPS,ioos:station:USF.COMPS:C12:1,2016-12-05T09:35:00Z,27.4980,-83.7220,24.21,1111122 
COMPS,ioos:station:USF.COMPS:C12:1,2016-12-05T10:05:00Z,27.4980,-83.7220,24.25,1111122 
COMPS,ioos:station:USF.COMPS:C12:1,2016-12-05T10:35:00Z,27.4980,-83.7220,24.28,1111122 
COMPS,ioos:station:USF.COMPS:C12:1,2016-12-05T11:05:00Z,27.4980,-83.7220,24.21,1111122 
COMPS,ioos:station:USF.COMPS:C12:1,2016-12-05T11:35:00Z,27.4980,-83.7220,24.08,1111122 
COMPS,ioos:station:USF.COMPS:C12:1,2016-12-05T12:05:00Z,27.4980,-83.7220,24.16,1111122 
COMPS,ioos:station:USF.COMPS:C12:1,2016-12-05T12:35:00Z,27.4980,-83.7220,24.17,1111122 
COMPS,ioos:station:USF.COMPS:C12:1,2016-12-05T13:05:00Z,27.4980,-83.7220,24.21,1111122 
COMPS,ioos:station:USF.COMPS:C12:1,2016-12-05T13:35:00Z,27.4980,-83.7220,24.25,1111122 
COMPS,ioos:station:USF.COMPS:C12:1,2016-12-05T14:05:00Z,27.4980,-83.7220,24.39,1111122 
COMPS,ioos:station:USF.COMPS:C12:1,2016-12-05T14:35:00Z,27.4980,-83.7220,24.46,1111122 
COMPS,ioos:station:USF.COMPS:C12:1,2016-12-05T15:05:00Z,27.4980,-83.7220,24.57,1111122 
COMPS,ioos:station:USF.COMPS:C12:1,2016-12-05T15:35:00Z,27.4980,-83.7220,24.63,1111122 
COMPS,ioos:station:USF.COMPS:C12:1,2016-12-05T16:05:00Z,27.4980,-83.7220,24.63,1111122 
COMPS,ioos:station:USF.COMPS:C12:1,2016-12-05T16:35:00Z,27.4980,-83.7220,24.66,1111122 
COMPS,ioos:station:USF.COMPS:C12:1,2016-12-05T17:05:00Z,27.4980,-83.7220,24.71,1111122 
COMPS,ioos:station:USF.COMPS:C12:1,2016-12-05T17:35:00Z,27.4980,-83.7220,24.72,1111122 
COMPS,ioos:station:USF.COMPS:C12:1,2016-12-05T18:05:00Z,27.4980,-83.7220,24.82,1111122 
COMPS,ioos:station:USF.COMPS:C12:1,2016-12-05T18:35:00Z,27.4980,-83.7220,24.79,1111122 
COMPS,ioos:station:USF.COMPS:C12:1,2016-12-05T19:05:00Z,27.4980,-83.7220,24.84,1111122 
COMPS,ioos:station:USF.COMPS:C12:1,2016-12-05T19:35:00Z,27.4980,-83.7220,24.86,1111122 
COMPS,ioos:station:USF.COMPS:C12:1,2016-12-05T20:05:00Z,27.4980,-83.7220,24.93,1111122 
COMPS,ioos:station:USF.COMPS:C12:1,2016-12-05T20:35:00Z,27.4980,-83.7220,24.9,1111122 
COMPS,ioos:station:USF.COMPS:C12:1,2016-12-05T21:05:00Z,27.4980,-83.7220,24.94,1111122 
COMPS,ioos:station:USF.COMPS:C12:1,2016-12-05T21:35:00Z,27.4980,-83.7220,24.87,1111122 
COMPS,ioos:station:USF.COMPS:C12:1,2016-12-05T22:05:00Z,27.4980,-83.7220,24.95,1111122 
COMPS,ioos:station:USF.COMPS:C12:1,2016-12-05T22:35:00Z,27.4980,-83.7220,24.96,1111122 
COMPS,ioos:station:USF.COMPS:C12:1,2016-12-05T23:05:00Z,27.4980,-83.7220,24.93,1111122 
COMPS,ioos:station:USF.COMPS:C12:1,2016-12-05T23:35:00Z,27.4980,-83.7220,24.85,1111122 
COMPS,ioos:station:USF.COMPS:C12:1,2016-12-06T00:05:00Z,27.4980,-83.7220,24.85,1111122 
COMPS,ioos:station:USF.COMPS:C12:1,2016-12-06T00:35:00Z,27.4980,-83.7220,24.9,1111122 
COMPS,ioos:station:USF.COMPS:C12:1,2016-12-06T01:05:00Z,27.4980,-83.7220,25.0,1111122 
COMPS,ioos:station:USF.COMPS:C12:1,2016-12-06T01:35:00Z,27.4980,-83.7220,25.03,1111122 
COMPS,ioos:station:USF.COMPS:C12:1,2016-12-06T02:05:00Z,27.4980,-83.7220,24.99,1111122 
COMPS,ioos:station:USF.COMPS:C12:1,2016-12-06T02:35:00Z,27.4980,-83.7220,24.91,1111122 
COMPS,ioos:station:USF.COMPS:C12:1,2016-12-06T03:05:00Z,27.4980,-83.7220,24.9,1111122 
COMPS,ioos:station:USF.COMPS:C12:1,2016-12-06T03:35:00Z,27.4980,-83.7220,24.9,1111122 
COMPS,ioos:station:USF.COMPS:C12:1,2016-12-06T04:05:00Z,27.4980,-83.7220,24.92,1111122 
COMPS,ioos:station:USF.COMPS:C12:1,2016-12-06T04:35:00Z,27.4980,-83.7220,24.93,1111122 
COMPS,ioos:station:USF.COMPS:C12:1,2016-12-06T05:05:00Z,27.4980,-83.7220,25.03,1111122 
COMPS,ioos:station:USF.COMPS:C12:1,2016-12-06T05:35:00Z,27.4980,-83.7220,25.13,1111122 
COMPS,ioos:station:USF.COMPS:C12:1,2016-12-06T06:05:00Z,27.4980,-83.7220,25.19,1111122 
COMPS,ioos:station:USF.COMPS:C12:1,2016-12-06T06:35:00Z,27.4980,-83.7220,25.27,1111122 
COMPS,ioos:station:USF.COMPS:C12:1,2016-12-06T07:05:00Z,27.4980,-83.7220,25.29,1111122 
COMPS,ioos:station:USF.COMPS:C12:1,2016-12-06T07:35:00Z,27.4980,-83.7220,25.29,1111122 
COMPS,ioos:station:USF.COMPS:C12:1,2016-12-06T08:05:00Z,27.4980,-83.7220,25.38,1111122 
COMPS,ioos:station:USF.COMPS:C12:1,2016-12-06T08:35:00Z,27.4980,-83.7220,25.32,1111122 
COMPS,ioos:station:USF.COMPS:C12:1,2016-12-06T09:05:00Z,27.4980,-83.7220,25.41,1111122 
COMPS,ioos:station:USF.COMPS:C12:1,2016-12-06T09:35:00Z,27.4980,-83.7220,25.4,1111122 
COMPS,ioos:station:USF.COMPS:C12:1,2016-12-06T10:05:00Z,27.4980,-83.7220,25.45,1111122 
COMPS,ioos:station:USF.COMPS:C12:1,2016-12-06T10:35:00Z,27.4980,-83.7220,25.5,1111122 
COMPS,ioos:station:USF.COMPS:C12:1,2016-12-06T11:05:00Z,27.4980,-83.7220,25.47,1111122 
COMPS,ioos:station:USF.COMPS:C12:1,2016-12-06T11:35:00Z,27.4980,-83.7220,25.53,1111122 
COMPS,ioos:station:USF.COMPS:C12:1,2016-12-06T12:05:00Z,27.4980,-83.7220,25.67,1111122 
COMPS,ioos:station:USF.COMPS:C12:1,2016-12-06T12:35:00Z,27.4980,-83.7220,25.7,1111122 
COMPS,ioos:station:USF.COMPS:C12:1,2016-12-06T13:05:00Z,27.4980,-83.7220,25.9,1111122 
COMPS,ioos:station:USF.COMPS:C12:1,2016-12-06T13:35:00Z,27.4980,-83.7220,25.91,1111122 
COMPS,ioos:station:USF.COMPS:C12:1,2016-12-06T14:05:00Z,27.4980,-83.7220,26.07,1111122 
COMPS,ioos:station:USF.COMPS:C12:1,2016-12-06T14:35:00Z,27.4980,-83.7220,26.16,1111122 
COMPS,ioos:station:USF.COMPS:C12:1,2016-12-06T15:05:00Z,27.4980,-83.7220,25.95,1111122 
COMPS,ioos:station:USF.COMPS:C12:1,2016-12-06T15:35:00Z,27.4980,-83.7220,25.9,1111122 